Location: Boston
(42.3580°N, 71.0600°W)
Time: 11:59:42
(UTC-05:00)

Vanguard 2 Rocket - Visible Passes

Search period start: 16 January 2018 00:00
Search period end: 26 January 2018 00:00
Orbit: 556 x 3326 km, 32.9° (Epoch: 15 January)

Date Brightness Start Highest point End Pass type
(mag) Time Alt. Az. Time Alt. Az. Time Alt. Az.
18 Jan 10.3 06:23:07 10° SSW 06:29:39 17° SSE 06:34:34 10° ESE visible
19 Jan 10.6 05:24:01 10° S 05:29:43 14° SSE 05:34:20 10° SE visible
20 Jan 10.8 04:27:04 10° SSE 04:29:34 11° SSE 04:31:53 10° SE visible
20 Jan 9.9 06:34:48 10° SSW 06:44:10 25° SSE 06:50:25 10° ESE visible
21 Jan 10.2 05:34:27 10° SSW 05:44:12 22° SSE 05:51:02 10° ESE visible
22 Jan 10.5 04:34:38 10° S 04:43:59 19° SSE 04:51:02 10° ESE visible
23 Jan 10.7 03:35:58 10° S 03:43:35 15° SSE 03:49:53 10° ESE visible
23 Jan 9.8 05:46:28 10° SW 05:58:37 31° SSE 06:06:27 10° ESE visible
24 Jan 11.0 02:41:25 10° SSE 02:43:02 10° SE 02:44:37 10° SE visible
24 Jan 10.1 04:45:45 10° SSW 04:58:21 28° SSE 05:07:00 10° ESE visible
25 Jan 10.4 03:45:37 10° SSW 03:57:51 23° SSE 04:06:57 10° ESE visible
25 Jan 9.5 05:59:19 10° SW 06:13:01 40° SSE 06:21:22 10° E visible
